Flag for U.S.A. Weather past 2 weeks in Bristol, Tennessee, U.S.A.

Now
66 °F

Overcast.


Feels Like: 66 °F
Forecast: 63 / 82 °F
Wind: 3 mph from Southwest

Location: Abingdon-Southwest Abingdon

Current Time: May 27, 2015 at 7:01:11 AM

Latest Report: May 27, 2015 at 6:15 AM


Visibility: 10 mi

Pressure: 30.24 "Hg

Humidity: 99%

Dew point: 66 °F

Location of BristolLocation

Historic Weather in Bristol — Graph

°F

Bristol temperature yesterday

Maximum temperature yesterday: 84 °F (at 4:55 PM)
Minimum temperature yesterday: 65 °F (at 4:15 AM)
Average temperature yesterday: 74 °F

Past Weeks' High & Low Weather Summary

 TemperatureHumidityPressure
High85 °F (May 25, 5:15 PM)100% (May 16, 11:15 PM)30.45 "Hg (May 16, 11:15 PM)
Low43 °F (May 22, 6:15 AM)25% (May 23, 5:55 PM)29.89 "Hg (May 21, 3:35 AM)
Average68 °F65%30.23 "Hg
* Reported May 12 5:15 AM — May 27 5:55 AM, Bristol, Weather by CustomWeather, © 2015

Note: Actual official high and low records may vary slightly from our data, if they occured in-between our weather recording intervals... More about our weather records

Advertising

Bristol weather history for previous 24 hours

 ConditionsComfort  
Time TempWeatherWind HumidityBarometerVisibility
5:55 AM
Wed, May 27
65 °FOvercast.3 mph100%30.23 "Hg10 mi
5:15 AM65 °FMostly cloudy.No wind100%30.22 "Hg7 mi
4:55 AM66 °FPassing clouds.3 mph99%30.21 "Hg7 mi
4:35 AM67 °FPassing clouds.No wind99%30.21 "Hg7 mi
4:15 AM67 °FPassing clouds.3 mph97%30.20 "Hg10 mi
3:55 AM67 °FClear.No wind99%30.20 "Hg10 mi
3:35 AM67 °FPassing clouds.No wind100%30.20 "Hg10 mi
3:15 AM66 °FClear.No wind100%30.20 "Hg7 mi
2:55 AM66 °FClear.No wind99%30.20 "Hg7 mi
2:15 AM67 °FPassing clouds.No wind98%30.20 "Hg10 mi
1:55 AM68 °FPassing clouds.No wind97%30.20 "Hg10 mi
1:15 AM69 °FPartly cloudy.No wind92%30.20 "Hg10 mi
12:55 AM69 °FPartly cloudy.3 mph91%30.22 "Hg10 mi
12:15 AM71 °FLight rain. Partly cloudy.5 mph85%30.22 "Hg10 mi
11:55 PM
Tue, May 26
73 °FLight rain. Overcast.7 mph78%30.23 "Hg10 mi
11:35 PM75 °FLight rain. Passing clouds.6 mph66%30.22 "Hg10 mi
11:15 PM75 °FPassing clouds.5 mph66%30.22 "Hg10 mi
10:55 PM75 °FPassing clouds.6 mph65%30.22 "Hg10 mi
10:35 PM75 °FPassing clouds.7 mph63%30.22 "Hg10 mi
10:15 PM75 °FClear.5 mph64%30.21 "Hg10 mi
9:55 PM75 °FClear.7 mph63%30.20 "Hg10 mi
9:15 PM77 °FSunny.7 mph59%30.19 "Hg10 mi
8:55 PM77 °FSunny.8 mph57%30.18 "Hg10 mi
8:15 PM78 °FSunny.7 mph56%30.18 "Hg10 mi
7:55 PM79 °FSunny.9 mph54%30.17 "Hg10 mi
7:35 PM79 °FSunny.6 mph55%30.17 "Hg10 mi
7:15 PM80 °FScattered clouds.8 mph53%30.17 "Hg10 mi
6:55 PM81 °FBroken clouds.9 mph51%30.17 "Hg10 mi
6:15 PM79 °FSunny.8 mph60%30.17 "Hg10 mi
5:15 PM79 °FHeavy rain. Broken clouds.7 mph62%30.18 "Hg4 mi
4:55 PM84 °FScattered clouds.6 mph50%30.18 "Hg10 mi
4:35 PM83 °FScattered clouds.7 mph49%30.18 "Hg10 mi
4:15 PM83 °FScattered clouds.10 mph50%30.18 "Hg10 mi
3:55 PM82 °FScattered clouds.8 mph55%30.19 "Hg10 mi
3:15 PM83 °FScattered clouds.3 mph54%30.22 "Hg10 mi
2:55 PM83 °FSunny.5 mph54%30.23 "Hg10 mi
2:35 PM82 °FScattered clouds.12 mph55%30.24 "Hg10 mi
2:15 PM81 °FScattered clouds.9 mph58%30.25 "Hg10 mi
1:55 PM80 °FSunny.10 mph60%30.26 "Hg10 mi
1:35 PM80 °FScattered clouds.8 mph59%30.27 "Hg10 mi
1:15 PM80 °FBroken clouds.9 mph59%30.27 "Hg10 mi
12:55 PM79 °FBroken clouds.9 mph63%30.28 "Hg10 mi
12:15 PM80 °FScattered clouds.9 mph60%30.28 "Hg10 mi
11:55 AM78 °FScattered clouds.6 mph64%30.28 "Hg10 mi
11:15 AM79 °FScattered clouds.10 mph61%30.28 "Hg10 mi
10:55 AM78 °FScattered clouds.6 mph64%30.28 "Hg10 mi
10:35 AM77 °FScattered clouds.5 mph68%30.28 "Hg10 mi
10:15 AM76 °FScattered clouds.3 mph72%30.29 "Hg10 mi
9:55 AM76 °FBroken clouds.No wind73%30.29 "Hg10 mi
9:15 AM71 °FMostly cloudy.5 mph84%30.30 "Hg10 mi
8:55 AM70 °FMostly cloudy.3 mph85%30.30 "Hg10 mi
8:15 AM67 °FPartly sunny.No wind93%30.30 "Hg10 mi
7:55 AM67 °FCloudy.3 mph97%30.28 "Hg10 mi
7:35 AM66 °FCloudy.No wind95%30.28 "Hg10 mi
7:15 AM65 °FMostly cloudy.No wind96%30.29 "Hg10 mi
Weather by CustomWeather, © 2015

See weather overviewHow to use our weather pages